Wind_Speed
13 14 14 12 11 11 10 8 7 6 6 7 8 8 9 8 7 2 3 2 2 1 1 2 2 2 2 3 3 3 4 1 4 4 4 3 3 4 1 3 2 5 4 2 3
14 15 15 13 12 11 10 8 7 6 6 6 8 9 9 10 5 5 3 4 1 1 3 2 2 2 3 2 2 4 3 7 5 4 5 3 2 3 2 4 5 5 6 3 6
15 16 15 14 13 11 10 9 7 6 6 6 7 9 10 6 1 4 5 7 2 2 2 2 3 2 2 1 1 3 5 4 5 7 3 4 4 4 3 6 9 8 6 2 7
16 16 15 14 12 11 10 10 7 6 5 5 7 8 7 2 4 1 3 10 4 3 3 3 3 2 1 1 0 2 6 5 4 3 3 4 2 4 7 11 4 5 7 3 7
16 16 15 14 13 11 11 9 8 6 6 4 6 8 2 2 6 2 7 7 5 3 3 2 1 2 1 2 1 4 4 3 6 6 6 3 7 5 9 7 5 5 4 7 9
15 15 14 14 13 11 10 9 8 6 6 5 5 5 1 1 2 2 6 4 3 2 2 2 3 4 3 2 3 1 4 8 7 3 3 2 2 1 1 4 6 7 9 9 9
15 15 14 14 13 11 10 9 8 6 6 6 6 2 2 9 2 3 6 2 1 1 2 1 3 2 4 1 2 3 7 8 1 1 1 4 4 5 3 5 9 8 9 9 9
16 15 14 13 11 10 9 8 8 6 6 5 4 3 5 3 5 8 8 4 4 3 2 2 2 4 1 2 6 4 3 5 3 5 1 1 8 5 5 9 8 8 9 9 10
15 13 13 12 9 8 8 7 7 7 6 3 2 2 7 3 4 7 10 4 6 5 4 3 3 3 4 4 4 6 2 2 8 6 2 1 8 1 6 4 2 6 8 8 9
13 12 11 10 9 8 7 6 5 4 1 4 1 1 3 3 2 3 9 7 3 4 3 5 4 3 3 3 3 2 3 3 5 4 5 4 10 9 7 3 5 5 7 7 7
12 11 12 10 9 7 5 3 3 2 3 7 5 3 1 1 3 2 5 7 4 5 2 3 3 5 7 6 4 2 2 4 5 4 3 2 7 8 6 6 6 6 7 8 9
14 13 12 10 9 8 5 3 4 2 4 11 3 4 4 2 2 2 8 5 4 5 3 4 5 8 3 4 3 3 2 5 5 2 1 5 7 5 4 2 3 5 7 8 7
14 14 13 10 8 6 7 7 4 1 1 5 5 5 5 8 5 5 8 4 3 4 5 6 3 4 4 3 3 3 4 4 5 5 1 5 5 3 2 3 4 4 4 4 7
14 14 12 10 5 5 5 9 6 3 3 5 2 4 4 7 3 1 7 5 2 6 5 5 3 4 2 4 6 2 4 3 2 2 2 3 3 4 1 3 2 3 4 6 7
14 14 13 13 5 5 1 7 8 1 2 1 1 1 2 7 5 3 2 3 7 6 5 6 3 3 2 4 6 5 0 0 1 3 3 2 3 5 1 5 4 3 1 5 5
13 14 13 12 4 2 8 10 3 5 5 2 2 3 4 1 2 2 2 5 2 4 1 6 3 2 4 1 2 5 2 4 3 3 1 1 3 4 4 5 4 4 3 4 5
12 15 17 10 4 10 11 4 4 3 2 4 4 4 2 4 3 3 4 4 5 3 4 2 2 1 1 2 2 4 4 4 4 3 3 1 2 7 3 3 6 9 5 3 1
11 15 17 9 8 15 6 5 3 3 5 2 4 3 6 6 2 3 4 1 4 3 2 3 3 4 1 1 5 2 5 4 3 2 4 3 5 3 4 6 4 5 6 4 2
11 15 7 13 12 14 5 3 7 7 4 7 3 3 3 3 4 3 6 5 7 10 7 4 3 1 3 2 2 2 2 3 5 1 1 3 6 6 3 4 4 6 3 1 1
12 10 5 13 13 7 4 5 4 4 2 2 6 4 6 4 4 6 6 3 3 8 1 4 1 1 1 2 4 2 5 3 2 2 4 4 5 4 4 6 5 3 3 2 5
8 3 1 17 12 4 5 7 5 6 4 4 5 3 3 5 7 5 4 3 3 3 3 4 3 1 2 4 6 1 0 5 3 3 4 2 5 5 9 7 6 5 2 6 4
7 3 4 15 3 1 4 6 5 3 2 2 4 4 7 5 5 4 6 5 5 7 7 3 4 3 7 1 1 2 4 5 4 4 1 2 6 4 8 7 4 5 5 3 2
4 2 4 2 4 3 2 3 3 3 3 4 4 4 2 5 2 4 3 1 4 4 6 6 0 2 6 4 1 3 4 3 4 3 7 5 5 1 2 3 3 4 6 3 2
3 3 2 2 1 6 5 4 5 3 3 3 2 3 2 2 2 2 2 1 1 2 5 6 3 6 6 5 4 4 4 5 5 3 4 7 5 5 7 8 6 4 5 1 3
3 5 4 5 4 4 5 7 7 6 4 5 1 6 6 4 1 4 3 1 1 3 3 4 5 4 5 5 3 4 6 7 8 7 8 12 13 8 8 8 6 7 2 3 4
4 4 1 3 3 9 6 7 9 4 7 5 5 7 6 8 9 7 5 3 5 2 4 2 3 4 3 1 5 5 9 10 12 12 11 9 16 6 1 6 5 4 2 2 3
4 1 3 3 4 7 6 7 9 6 6 6 9 5 5 10 7 3 3 2 3 8 7 5 6 3 5 3 4 7 8 13 3 4 7 9 8 7 5 6 5 5 3 3 4
Wind_Direction
254 252 254 252 257 262 268 273 265 265 288 308 318 326 327 330 324 269 250 224 143 128 162 118 88 29 32 75 74 125 63 234 249 188 266 274 23 303 334 279 282 215 230 253 289
252 252 253 253 251 261 264 265 252 265 289 309 321 324 326 329 320 253 224 202 201 123 134 101 55 41 47 76 34 84 108 223 211 206 242 276 221 247 320 292 274 283 271 261 185
250 252 253 254 247 254 264 258 244 258 287 311 320 325 329 332 19 256 214 193 187 143 123 109 104 82 58 25 146 156 192 211 246 231 256 265 269 199 205 282 233 258 280 228 206
243 245 249 255 248 252 257 258 231 255 278 305 317 327 331 353 181 339 224 185 180 149 123 98 55 87 122 266 142 320 241 213 266 228 179 236 257 262 193 243 18 278 265 249 222
240 242 248 253 250 250 252 246 242 249 278 294 316 330 348 29 257 341 154 162 168 137 112 119 103 128 225 191 223 202 260 229 253 269 256 299 247 241 258 309 315 323 352 285 264
241 241 246 251 247 246 244 235 242 256 278 293 311 324 97 240 285 235 175 169 177 179 114 141 188 204 176 216 176 240 271 275 278 228 248 224 280 163 33 332 353 1 341 322 294
240 243 242 245 242 239 231 225 242 259 277 297 302 272 113 236 208 168 182 177 201 184 137 197 152 141 141 275 330 334 323 324 307 70 352 180 309 239 352 355 17 5 353 348 345
235 236 237 238 234 230 220 225 247 261 276 297 288 185 243 235 234 223 199 176 160 125 92 124 133 108 104 119 15 26 48 359 322 338 136 147 277 271 8 23 357 6 4 2 357
231 229 230 232 224 220 218 233 255 271 270 278 196 183 266 273 227 232 201 171 151 116 85 107 76 91 33 81 12 16 295 306 316 15 353 52 277 253 350 335 24 20 1 355 355
225 227 226 223 213 215 226 247 261 261 209 149 161 20 275 236 180 177 183 164 127 107 42 42 49 77 44 89 225 264 309 275 254 297 355 278 268 302 299 241 136 37 4 3 14
225 224 220 209 206 209 219 165 59 356 220 198 188 200 265 171 155 139 150 127 93 61 205 10 61 228 223 191 148 182 210 262 255 280 329 305 294 304 351 95 98 40 17 12 18
217 212 210 200 198 205 190 183 211 162 276 234 218 276 250 190 145 196 158 129 132 197 108 13 250 240 186 161 185 176 271 279 283 248 95 355 307 324 40 67 78 57 20 13 1
208 202 201 191 192 206 208 217 200 198 152 284 182 180 208 174 217 222 147 142 144 155 189 176 237 102 155 191 171 212 207 219 230 332 87 331 331 348 31 84 61 37 8 18 31
200 195 193 177 187 174 225 217 198 210 55 275 212 260 161 144 240 185 174 139 127 200 169 225 266 232 167 222 140 306 203 182 260 54 262 22 268 282 222 136 77 14 8 41 36
198 193 189 180 142 175 204 160 179 72 6 219 142 174 162 154 148 21 138 59 166 177 116 256 202 204 167 209 161 207 82 112 170 116 49 311 94 262 305 211 186 218 39 65 66
199 194 191 194 214 204 150 140 122 52 256 161 146 194 121 74 58 100 107 53 131 149 157 234 307 240 222 75 148 124 103 53 62 97 31 251 125 279 186 200 173 216 218 112 68
197 195 188 181 177 169 157 100 63 153 330 188 181 182 151 156 134 127 151 157 163 119 231 230 218 298 151 121 24 83 56 327 349 9 219 108 53 246 287 243 193 187 195 133 104
193 191 195 189 170 161 138 55 161 237 220 110 127 105 177 156 202 138 112 205 224 142 131 167 309 181 175 221 180 136 152 158 265 262 281 293 237 248 291 293 195 124 132 143 186
181 178 187 192 168 162 85 130 206 209 209 152 112 138 230 196 149 126 189 211 208 176 180 150 277 34 51 21 79 152 172 154 105 41 28 266 294 322 26 41 121 145 124 212 355
156 163 177 175 167 134 90 226 222 218 233 153 171 150 179 199 149 159 188 208 224 194 131 192 110 58 67 72 53 151 153 78 14 220 274 296 283 236 198 188 171 167 202 27 78
144 114 182 160 153 65 181 220 233 243 229 173 190 144 187 182 168 185 198 259 182 141 165 140 110 342 60 201 187 105 197 52 117 141 192 278 268 217 188 190 175 211 89 133 97
149 145 146 158 107 135 170 187 200 235 204 205 124 174 179 164 167 209 211 227 180 151 156 188 131 183 211 199 152 184 191 156 135 226 159 144 271 292 175 169 180 217 166 140 83
124 115 72 115 181 207 229 212 213 171 213 172 191 195 204 162 167 197 198 17 160 150 159 181 156 45 333 4 7 226 193 139 108 90 197 157 258 168 176 160 282 226 199 220 341
130 123 15 64 338 156 154 195 202 198 211 164 154 117 119 169 213 160 224 153 32 115 92 105 146 170 199 209 150 195 196 181 153 157 196 221 238 204 227 232 280 222 203 264 337
80 215 183 186 222 189 179 185 166 199 210 167 220 197 170 184 203 218 206 159 37 114 78 134 204 183 250 220 197 214 219 194 200 216 207 257 222 216 217 227 206 181 128 331 331
145 154 81 168 134 167 172 202 178 217 152 219 187 209 182 177 187 201 159 188 206 68 146 8 205 157 281 254 207 252 241 241 231 246 257 267 262 189 206 111 135 152 199 270 320
167 143 126 144 133 162 199 188 199 164 217 192 196 140 169 226 198 195 171 143 157 155 174 150 138 125 256 344 335 296 224 225 210 211 224 224 242 157 154 160 176 174 181 353 359
Height
815 817 818 818 818 818 818 817 817 817 816 815 814 812 810 808 806 806 806 806 806 806 807 808 807 808 809 812 814 818 843 850 838 836 827 817 819 812 809 812 809 807 805 803 803
814 816 817 817 817 817 816 816 816 815 815 814 813 811 809 807 806 805 805 805 805 806 807 807 809 809 814 814 818 828 848 840 828 826 823 816 819 814 814 814 812 807 801 801 801
813 815 815 816 815 814 815 815 814 814 814 813 812 811 808 806 806 803 802 804 805 805 806 808 808 810 815 816 819 826 836 826 820 820 819 819 816 811 815 816 810 806 802 801 801
811 813 813 813 812 812 813 813 813 813 812 811 811 810 808 806 823 801 801 803 805 806 806 808 810 814 819 823 820 827 821 820 815 811 814 818 811 811 813 802 801 801 800 799 799
808 810 810 810 810 810 811 811 812 811 811 810 810 809 807 809 806 802 802 804 805 806 806 808 812 816 821 819 819 824 819 816 813 815 815 813 815 812 806 802 800 798 799 799 796
805 806 807 807 808 809 809 810 811 810 810 809 809 808 808 815 802 801 802 804 805 805 807 807 809 811 815 818 820 818 818 817 813 813 812 813 812 811 803 802 800 800 799 796 793
802 802 803 805 807 807 806 808 810 809 808 808 808 808 808 806 800 800 802 803 804 805 806 807 807 811 813 818 816 818 824 819 810 809 810 814 812 813 804 802 803 802 801 797 793
799 800 802 804 803 804 805 806 808 807 806 806 807 807 808 799 799 799 801 802 803 805 806 807 806 809 813 813 821 825 829 837 813 813 811 812 828 806 805 804 805 805 804 800 796
796 797 800 802 801 802 804 804 805 805 804 805 806 807 807 798 798 798 799 801 803 804 806 807 808 815 818 828 838 837 842 834 829 817 813 813 821 806 806 804 804 807 807 804 799
793 794 796 798 798 801 803 803 803 804 804 805 806 810 800 799 796 797 798 801 803 805 809 812 820 826 832 834 847 836 838 835 837 820 820 821 823 814 809 806 806 809 810 808 803
789 791 795 796 797 799 802 801 805 806 803 800 797 797 795 795 796 797 798 800 803 809 820 819 828 834 826 824 822 827 834 839 833 822 822 821 828 817 811 810 811 812 812 809 806
789 790 793 794 795 798 798 797 796 796 802 793 794 794 794 795 799 797 798 805 808 822 819 828 835 820 818 820 823 829 832 836 828 822 825 827 823 817 811 811 811 812 813 812 810
786 789 792 792 794 795 795 794 795 794 803 793 789 791 793 796 798 797 796 802 810 821 823 831 819 817 815 819 823 826 830 830 829 826 826 831 823 818 810 810 813 814 813 813 813
784 786 790 789 795 790 794 789 793 796 814 802 792 789 790 791 799 792 794 800 809 818 824 826 816 815 818 818 822 828 824 822 824 832 838 833 840 823 813 813 814 815 815 815 815
781 783 786 789 787 790 790 788 793 795 831 794 791 788 789 793 796 796 794 798 812 813 818 821 814 815 814 812 814 821 820 823 825 836 838 834 843 826 819 816 815 813 810 813 815
778 780 784 786 786 788 788 790 794 821 828 798 793 798 796 794 796 797 797 798 803 810 812 818 810 809 810 811 810 815 823 831 842 845 844 831 839 828 823 816 814 812 809 812 813
776 780 784 784 784 787 791 794 818 828 795 801 800 798 799 800 798 799 805 810 817 827 825 813 813 809 808 814 815 816 832 846 839 843 839 835 843 823 812 810 811 811 811 812 813
775 778 780 781 782 785 790 804 820 805 805 789 794 800 803 800 800 803 810 816 811 812 824 822 824 814 810 812 818 820 829 848 836 846 847 841 838 816 813 813 806 808 812 812 812
773 777 779 780 782 784 796 818 811 805 791 791 792 799 801 797 800 803 813 815 806 809 818 824 817 812 813 813 814 824 833 831 849 856 854 842 829 814 810 809 810 810 809 809 811
771 776 776 778 783 785 803 807 800 791 783 785 795 795 806 802 803 808 813 800 797 803 797 807 818 816 815 814 819 819 826 836 847 840 843 844 842 827 816 813 807 806 806 810 813
770 777 777 777 782 792 804 805 793 786 784 785 790 795 797 801 804 808 803 795 794 799 800 807 813 819 816 822 825 829 830 839 842 850 846 850 834 818 815 812 807 806 808 813 813
768 777 776 778 792 803 802 792 784 780 781 780 783 787 796 797 803 805 801 798 792 795 804 805 820 827 820 817 816 818 822 829 839 841 858 854 840 805 810 807 806 808 811 811 811
770 776 776 777 792 798 790 784 781 780 781 783 783 785 786 791 794 798 797 792 792 793 801 805 822 831 824 822 819 818 822 826 835 841 851 847 828 808 810 809 808 809 812 812 811
764 775 779 782 787 782 785 783 782 777 777 779 782 783 787 789 789 791 793 794 794 791 795 799 819 816 826 812 816 818 816 822 822 838 832 830 810 808 811 812 809 810 811 811 812
761 768 767 781 784 781 776 775 780 782 780 781 785 784 788 793 793 795 793 795 795 794 799 804 813 817 812 809 810 808 809 815 821 814 816 794 806 803 803 806 807 810 809 811 812
762 765 768 772 770 776 779 780 779 778 781 782 785 782 787 790 789 794 795 797 794 799 801 810 812 816 812 809 816 817 812 809 807 804 810 803 797 795 797 804 805 805 808 808 809
756 756 757 768 772 773 774 771 772 770 773 772 777 782 787 783 780 780 784 788 788 797 805 810 818 822 821 818 816 814 799 792 800 804 799 804 789 797 800 802 802 805 803 804 808